Regional Weather Roundup
Issued by NWS

Home | Current Version | Previous Version | Text Only | Print | Product List | Glossary Off
Versions: 1 2 3 4 5 6 7 8 9 10 11 12 13 14 15 16 17 18 19 20 21 22 23 24 25 26 27 28 29 30 31 32 33 34 35 36 37 38 39 40 41 42 43 44 45 46 47 48 49 50

000
ASUS43 KFSD 080410
RWRSD

WEATHER ROUNDUP FOR SOUTH DAKOTA
NATIONAL WEATHER SERVICE SIOUX FALLS SD
1000 PM CST WED DEC 07 2016

NOTE: "FAIR" INDICATES FEW OR NO CLOUDS BELOW 12,000 FEET WITH NO
SIGNIFICANT WEATHER AND/OR OBSTRUCTIONS TO VISIBILITY.


SDZ001>005-009-010-012>017-080500-
NORTHWEST AND NORTH CENTRAL SOUTH DAKOTA

CITY           SKY/WX    TMP DP  RH WIND       PRES   REMARKS
BUFFALO          N/A      3  -4  72 NW22      30.40R WCI -19
FAITH            N/A      1  -4  79 NW21      30.44S WCI -21
MOBRIDGE       PTCLDY     5  -4  66 NW20G31   30.43R WCI -15
$$

SDZ012>016-024>037-041>051-057-063-072>074-080500-
SOUTHWEST AND SOUTH CENTRAL SOUTH DAKOTA

CITY           SKY/WX    TMP DP  RH WIND       PRES   REMARKS
RAPID CTY ARPT CLEAR      3  -6  66 N13       30.46R WCI -14
PIERRE         MIX PCPN   8   0  69 NW31G39   30.47R WCI -15
CUSTER         CLEAR     -1 -12  59 NW3       30.25R
ELLSWORTH AFB  CLEAR      4  -5  64 N14       30.44R WCI -13
PHILIP         CLEAR      6  -3  66 NW17G28   30.52R WCI -13
PINE RIDGE     CLEAR     -3  -8  79 W3        30.47R
SPEARFISH      FAIR       3  -8  60 W13G20    30.44R WCI -14
WINNER         FAIR       9  -1  64 NW23G32   30.47R WCI -11
$$

SDZ004>011-016>023-039-040-080500-
NORTHEAST SOUTH DAKOTA

CITY           SKY/WX    TMP DP  RH WIND       PRES   REMARKS
ABERDEEN       FLURRIES   9   2  73 NW24G36   30.35R WCI -12
WATERTOWN      LGT SNOW   7   2  80 W21G31    30.26R WCI -13
BROOKINGS      CLEAR      6   1  80 NW22G28   30.29R WCI -15
SISSETON         N/A     11   6  81 NW24G36   30.24R WCI  -9
$$

SDZ017-020-022-023-036>040-048>070-080500-
SOUTHEAST SOUTH DAKOTA

CITY           SKY/WX    TMP DP  RH WIND       PRES   REMARKS
SIOUX FALLS    PTCLDY     9   3  77 NW23G33   30.34R WCI -11
HURON          LGT SNOW   8   3  80 NW24G32   30.41R WCI -13
CHAMBERLAIN    MOCLDY    10   2  72 NW21G28   30.48R WCI -10
MITCHELL       MOCLDY    10   2  69 NW23G35   30.44R WCI -10
YANKTON        CLEAR     12   3  67 NW21G30   30.41R WCI  -6
$$

ABBREVIATIONS USED IN REMARKS
   TC - TEMPERATURE IN CELSIUS
  WCI - WIND CHILL INDEX
   HX - HEAT INDEX
  VSB - VISIBILITY





USA.gov is the U.S. government's official web portal to all federal, state and local government web resources and services.